Probability
10 10 9 7 5 3 3 2 1 2 2 3 4 6 7 7 6 6 6 7 8 10 9 8 9 14 18 18 18 18 17 16 13 10 8 9 9 7 6 6 6 5 4
9 9 9 7 5 3 3 2 1 1 1 3 4 5 6 6 6 6 7 9 11 12 12 11 10 13 15 16 17 16 13 12 11 10 10 11 9 7 6 6 6 4 4
6 7 7 6 5 3 2 2 2 1 1 2 3 4 4 4 5 7 9 12 13 14 14 13 11 11 12 13 15 14 11 9 8 9 10 10 8 6 7 7 6 6 5
4 5 5 4 4 3 2 3 3 3 3 3 4 4 4 4 5 8 10 12 13 14 14 13 10 9 9 10 12 13 10 8 7 8 7 6 6 6 7 7 8 6 5
4 4 3 2 2 2 3 4 4 3 3 5 6 6 5 4 5 8 9 10 10 10 10 9 7 6 6 6 7 8 8 6 5 5 4 4 5 6 6 7 7 5 4
6 4 3 1 1 2 3 4 4 4 4 6 7 7 6 5 4 5 6 7 6 5 5 5 4 3 3 2 2 2 3 3 2 2 2 4 5 6 6 5 4 3 2
7 5 3 2 1 2 2 3 5 6 6 6 6 6 5 4 3 2 2 3 3 3 2 3 3 2 1 0 0 0 0 0 0 0 1 2 3 5 6 5 3 2 1
6 4 3 2 1 1 1 2 4 5 6 5 4 3 2 1 1 0 0 1 1 1 1 2 3 2 1 0 0 0 1 1 0 0 0 1 2 4 5 4 3 2 1
3 3 3 2 1 0 1 2 3 4 4 3 3 2 1 0 0 0 0 0 0 0 1 2 3 2 1 0 0 1 2 2 1 0 0 0 0 1 2 3 3 1 0
2 3 3 3 2 1 1 2 2 3 3 2 2 2 1 0 0 0 0 0 1 1 2 3 2 1 0 0 1 3 4 4 2 1 1 0 0 0 1 2 2 1 0
3 3 4 4 3 3 3 3 2 3 3 2 2 1 1 1 0 0 0 0 1 3 4 5 3 1 0 0 1 3 4 3 3 2 1 0 0 0 0 1 1 0 0
3 4 5 5 4 4 4 5 5 4 4 3 3 2 2 2 1 0 0 0 1 3 4 5 3 1 0 0 0 1 1 1 2 2 1 0 0 0 0 0 0 0 0
3 4 6 6 6 5 6 6 6 5 4 3 3 2 3 2 1 0 0 0 0 1 2 2 1 0 0 0 0 0 0 0 1 1 0 0 0 0 0 0 0 0 0
4 4 6 7 7 7 7 7 6 5 4 2 2 2 2 2 1 0 0 0 0 0 0 0 0 0 0 0 0 0 0 0 0 0 0 0 0 0 0 0 0 0 0
5 5 5 5 6 6 6 5 5 4 2 1 1 2 2 2 1 0 0 0 0 0 0 0 0 0 0 0 0 0 0 0 0 0 0 0 0 0 0 0 0 0 0
7 6 4 4 4 4 4 4 3 2 1 0 1 1 2 1 0 0 0 0 0 0 0 0 0 0 0 0 0 0 0 0 0 0 0 0 0 0 0 0 0 0 0
6 5 4 3 3 3 3 3 2 0 0 0 0 0 0 0 0 0 0 0 0 0 0 0 0 0 0 0 0 0 0 0 0 0 0 0 0 0 0 0 0 0 0
2 2 2 3 3 3 3 3 1 0 0 0 0 0 0 0 0 0 0 0 0 0 0 0 0 0 0 0 0 0 0 0 0 0 0 0 0 0 0 0 0 0 0
0 0 1 2 2 2 2 2 1 0 0 0 0 0 0 0 0 0 0 0 0 0 0 0 0 0 0 0 0 0 0 0 0 0 0 0 0 0 0 0 0 0 0
0 0 0 1 1 1 1 1 0 0 0 0 0 0 0 0 0 0 0 0 0 0 0 0 0 0 0 0 0 0 0 0 0 0 0 0 0 0 0 0 0 0 0
0 0 0 0 0 0 0 0 0 0 0 0 0 0 0 0 0 0 0 0 0 0 0 0 0 0 0 0 0 0 0 0 0 0 0 0 0 0 0 0 0 0 0
0 0 0 0 0 0 0 0 0 0 0 0 0 0 0 0 0 0 0 0 0 0 0 0 0 0 0 0 0 0 0 0 0 0 0 0 0 0 0 0 0 0 0
0 0 0 0 0 0 0 0 0 0 0 0 0 0 0 0 0 0 0 0 0 0 0 0 0 0 0 0 0 0 0 0 0 0 0 0 0 0 0 0 0 0 0
0 0 0 0 0 0 0 0 0 0 0 0 0 0 0 0 0 0 0 0 0 0 0 0 0 0 0 0 0 0 0 0 0 0 0 0 0 0 0 0 0 0 0
0 0 0 0 0 0 0 0 0 0 0 0 0 0 0 0 0 0 0 0 0 0 0 0 0 0 0 0 0 0 0 0 0 0 0 0 0 0 0 0 0 0 0
0 0 0 0 0 0 0 0 0 0 0 0 0 0 0 0 0 0 0 0 0 0 0 0 0 0 0 0 0 0 0 0 0 0 0 0 0 0 0 0 0 0 0
Wind_Speed
6 6 6 5 5 5 5 5 5 5 6 6 6 6 7 7 6 6 6 5 5 5 5 6 6 5 4 4 4 4 4 4 4 2 1 2 3 3 4 4 4 4 6
5 5 5 4 4 4 5 4 4 4 5 5 5 5 6 6 6 6 6 6 6 6 5 5 5 4 5 5 4 4 4 3 4 4 2 2 2 3 4 3 3 3 4
5 5 4 4 4 3 3 3 4 4 4 4 4 5 5 4 5 5 5 6 6 5 4 4 5 5 5 4 4 4 3 3 3 3 3 2 2 3 3 3 3 2 3
5 4 4 3 3 3 3 2 2 3 3 3 3 4 4 4 4 4 4 4 4 3 3 3 4 4 4 4 4 3 3 3 3 3 3 3 3 3 3 3 3 2 2
5 4 4 3 3 3 2 2 2 2 2 2 2 2 2 2 2 2 3 3 3 2 2 2 2 1 1 1 2 3 3 3 3 3 3 3 3 3 3 3 3 3 3
5 5 4 4 3 3 2 2 3 2 2 2 2 2 2 1 1 1 2 3 3 3 2 2 1 2 4 6 6 6 4 2 3 3 3 3 3 3 2 3 3 3 2
6 5 4 4 4 4 3 3 3 3 4 3 3 3 2 3 4 3 3 3 2 2 2 2 2 2 4 5 8 8 8 8 5 2 3 3 3 3 3 4 3 2 3
6 5 5 4 4 4 4 4 3 3 3 3 3 3 3 4 5 4 5 5 4 3 3 3 3 3 4 6 7 7 7 7 5 4 4 4 4 3 3 4 5 6 5
6 5 5 4 5 5 5 4 3 3 4 3 3 4 4 4 5 5 5 5 5 5 4 4 4 5 5 7 8 9 9 8 11 14 13 12 12 9 5 5 5 5 4
5 5 5 5 5 5 5 4 4 4 4 4 4 3 3 3 5 4 4 4 5 5 5 5 7 6 6 5 8 9 9 8 8 10 10 9 9 9 7 4 3 3 3
5 5 5 5 5 5 4 4 4 4 4 4 4 4 3 3 5 5 2 3 4 5 5 4 5 9 8 6 6 7 8 8 8 8 8 7 7 6 6 6 5 3 3
6 6 5 5 4 4 5 4 4 4 4 4 3 3 3 4 4 5 5 3 3 5 5 5 7 9 9 8 7 8 8 6 6 6 6 6 6 6 6 6 7 7 6
6 5 5 5 4 4 4 4 4 3 3 3 3 3 3 4 5 7 6 6 5 5 6 9 9 9 10 9 10 8 6 5 6 6 6 6 5 5 5 5 6 5 5
6 5 5 5 4 4 2 2 2 2 2 2 2 3 3 4 4 5 6 6 8 8 9 11 11 8 7 9 8 6 4 5 4 5 5 5 5 4 4 3 3 3 3
6 5 4 4 5 4 3 2 1 2 2 0 2 3 3 3 3 3 3 4 5 6 8 7 6 6 6 6 6 5 5 5 4 4 5 4 4 4 4 3 2 1 2
5 5 4 4 4 4 4 5 9 7 8 8 6 3 4 5 6 7 6 7 7 6 6 6 6 5 5 6 5 5 5 4 4 4 4 4 3 3 3 3 2 1 2
5 4 4 4 4 4 4 5 5 6 9 9 8 7 7 7 8 8 8 8 7 6 5 6 5 5 5 5 5 5 5 4 3 3 3 3 3 3 3 2 1 1 1
5 5 4 4 4 4 4 4 4 5 5 5 6 7 8 8 8 8 8 8 6 3 4 5 5 5 5 4 4 4 4 4 3 3 3 3 2 2 2 2 1 1 1
4 4 4 4 4 4 4 4 5 5 5 5 6 6 6 8 7 6 5 4 5 5 4 4 4 4 4 4 4 4 4 3 3 2 3 2 2 2 2 1 1 1 2
4 5 4 4 4 4 4 4 5 5 5 5 5 6 6 6 5 5 4 3 4 4 4 4 4 4 4 4 4 3 3 4 4 3 3 2 2 2 2 1 1 1 1
5 5 6 4 4 4 4 5 5 5 5 4 4 4 3 4 5 5 4 4 4 4 4 4 4 4 4 4 4 4 4 3 3 3 3 2 2 2 1 1 1 1 1
5 4 4 4 4 4 4 5 5 5 5 5 5 5 3 3 4 4 4 5 5 4 4 4 4 4 4 4 4 4 4 4 3 3 3 2 2 2 2 2 2 2 2
5 6 5 5 5 5 4 4 4 5 5 5 5 5 5 4 4 4 4 4 4 4 4 4 4 4 4 4 4 3 3 3 3 3 3 3 2 2 2 2 2 3 2
6 6 6 5 5 5 5 5 4 5 5 5 5 5 5 4 4 5 4 4 4 4 4 4 4 5 5 4 3 3 3 2 3 3 3 3 3 3 3 3 3 3 3
6 6 6 5 5 5 4 5 5 5 5 4 4 4 4 5 5 5 5 4 5 4 4 4 4 5 6 5 4 3 4 3 0 2 4 4 4 4 4 4 4 4 4
6 6 5 5 5 4 4 4 4 5 4 4 4 4 4 5 5 5 5 5 5 5 5 4 5 5 6 6 5 5 5 4 2 2 4 5 5 4 4 4 5 5 5
Wind_Direction
182 187 194 198 199 203 213 222 224 223 221 223 228 231 230 228 227 225 228 226 229 233 235 233 236 247 246 241 233 234 239 237 234 226 187 126 134 144 132 135 134 133 116
172 178 186 190 193 200 208 213 216 218 222 222 221 227 234 230 227 222 224 223 224 228 232 234 238 236 235 245 238 236 237 238 226 213 190 166 158 148 138 146 143 135 123
164 172 178 187 188 195 204 207 208 208 216 220 217 219 224 228 228 224 223 226 224 229 228 229 236 235 230 231 229 233 231 226 215 202 183 153 153 142 133 131 119 116 123
159 165 172 182 182 186 187 189 195 198 204 209 218 221 219 221 227 224 220 219 213 221 228 230 236 232 224 220 215 220 225 219 194 185 176 167 156 159 158 155 145 138 117
149 150 155 158 155 150 148 157 161 166 175 180 191 195 202 212 222 211 199 186 187 193 206 216 213 170 134 168 191 192 197 197 190 181 177 171 169 165 177 181 159 140 109
143 136 131 133 129 127 128 128 129 128 125 130 139 139 139 149 81 147 188 170 167 169 179 188 171 150 118 103 89 79 81 146 175 176 170 165 165 174 168 171 155 153 144
138 131 127 126 124 120 122 121 119 111 104 99 98 97 93 79 85 101 131 147 134 131 142 154 150 122 133 130 111 98 82 73 77 126 151 160 156 161 169 161 149 144 106
140 137 136 133 126 120 115 108 104 102 101 97 93 93 92 78 89 107 119 116 102 93 94 112 120 110 116 125 121 109 94 78 75 90 103 97 101 117 142 135 128 119 114
146 144 142 139 133 129 122 115 110 106 103 105 101 97 95 86 85 105 128 122 111 99 88 85 102 111 109 128 125 116 105 93 74 75 75 80 78 74 77 116 126 129 120
150 146 142 143 140 134 127 124 118 115 114 111 103 98 99 94 84 98 133 131 123 118 104 96 84 96 107 119 128 124 117 110 108 102 94 94 89 84 70 69 104 124 124
142 139 134 135 136 135 130 131 132 131 123 119 113 105 98 92 97 94 105 139 131 127 120 112 98 101 102 95 108 113 120 125 119 112 106 98 91 83 76 65 43 36 63
140 138 137 139 140 136 137 137 139 142 140 138 129 118 112 106 95 95 87 82 96 118 117 112 106 108 103 97 98 104 120 130 117 110 102 96 91 85 77 70 62 57 56
139 138 136 135 133 136 143 148 150 156 158 150 145 136 125 117 110 106 103 91 87 99 95 97 109 118 118 103 103 114 130 120 110 105 99 93 88 89 96 100 97 92 90
138 136 137 139 135 123 122 138 148 151 153 155 154 149 142 139 138 138 135 127 124 114 111 114 116 108 104 106 119 117 99 86 95 102 104 104 108 111 106 101 109 118 114
142 143 142 136 128 119 99 58 82 74 45 152 161 158 158 149 116 99 138 139 135 129 133 132 131 131 124 120 115 108 108 113 110 108 110 113 113 106 100 96 88 98 87
144 143 143 139 135 133 123 93 55 61 60 52 40 61 86 95 117 118 109 106 116 139 143 132 133 135 131 127 124 119 113 108 106 106 106 109 113 113 109 101 88 74 74
143 142 144 144 144 140 136 133 122 91 74 65 61 71 92 111 121 124 122 121 130 149 142 130 131 129 126 123 119 116 113 110 106 113 116 119 117 116 113 108 101 92 75
142 136 142 142 143 142 143 140 136 133 123 103 82 83 99 107 115 122 131 133 132 151 131 127 129 128 125 119 116 114 115 120 122 123 125 126 125 128 129 133 117 39 42
136 132 128 127 132 135 137 136 132 130 127 126 125 112 108 114 115 124 149 150 135 136 129 123 121 120 118 116 114 119 124 126 125 133 133 138 150 157 147 152 130 126 280
118 115 124 130 130 129 131 131 131 132 133 135 137 137 143 148 137 139 153 142 131 127 124 121 116 114 117 120 126 132 136 139 148 160 151 161 162 161 163 192 203 209 252
122 125 132 130 129 131 132 130 131 132 136 137 132 120 136 150 139 140 146 137 128 125 125 126 128 133 135 140 140 147 153 151 155 161 162 172 175 178 199 213 225 256 276
124 130 131 124 123 125 127 131 133 133 135 131 124 127 145 149 135 139 140 138 137 135 140 148 149 146 147 150 153 161 165 163 167 176 182 182 187 202 221 233 246 264 274
126 127 123 121 121 123 130 130 132 132 132 133 136 140 149 149 144 144 144 141 142 145 148 153 153 151 150 155 162 173 182 176 178 188 198 199 207 216 229 235 250 264 274
131 130 128 128 130 136 136 135 135 134 136 138 143 148 152 155 154 149 151 151 154 153 155 160 161 156 159 168 174 179 174 175 195 191 208 222 229 235 237 240 252 263 270
132 132 134 137 138 139 139 140 143 145 147 151 155 159 160 160 159 158 160 159 161 162 166 170 168 168 176 186 188 165 111 98 14 265 208 224 229 238 246 250 257 265 272
134 137 139 140 141 144 148 151 152 153 157 160 164 167 170 170 168 168 171 172 173 172 179 182 182 183 188 197 182 151 139 147 174 271 260 233 231 237 246 254 258 262 267